カタログに戻る

STARLINK-35998

運用中通信VLEO
NORAD 68055·PAYLOAD·🇺🇸 United States

打ち上げ Mar 2, 2026 から Vandenberg Space Force Base

Loading…

次のパス (今後24時間)

TLE

最新Source: CelesTrak SupGP

元期: Sep 15, 2026, 04:21 UTC

1 68055C 26041R   26258.18173611 -.00051257  00000+0 -15144-2 0  2584
2 68055  53.1583 246.4879 0001404  88.5901 346.3896 15.34416162    14

AllMySatでSTARLINK-35998をリアルタイム追跡

Download on the App Store